Flag for China Weather past 2 weeks in Tsingtao, Shandong, China

Now
81 °F

Passing clouds.


Feels Like: 85 °F
Forecast: 80 / 87 °F
Wind: 8 mph from Northeast

Location: Qingdao Airport

Current Time: Jul 31, 2015 at 5:10:56 AM

Latest Report: Jul 31, 2015 at 4:00 AM


Visibility: N/A

Pressure: 29.71 "Hg

Humidity: 74%

Dew point: 72 °F

Location of TsingtaoLocation

Historic Weather in Tsingtao — Graph

°F

Tsingtao temperature yesterday

Maximum temperature yesterday: 95 °F (at 12:00 PM)
Minimum temperature yesterday: 81 °F (at 7:00 PM)
Average temperature yesterday: 88 °F

Past Weeks' High & Low Weather Summary

 TemperatureHumidityPressure
High95 °F (Jul 30, 12:00 PM)94% (Jul 25, 6:00 AM)29.83 "Hg (Jul 25, 6:00 AM)
Low72 °F (Jul 18, 2:00 AM)41% (Jul 25, 1:00 PM)29.56 "Hg (Jul 24, 5:00 PM)
Average81 °F75%29.69 "Hg
* Reported Jul 16 4:00 AM — Jul 31 4:00 AM, Tsingtao, Weather by CustomWeather, © 2015

Note: Actual official high and low records may vary slightly from our data, if they occured in-between our weather recording intervals... More about our weather records

Advertising

Tsingtao weather history for previous 24 hours

 ConditionsComfort  
Time TempWeatherWind HumidityBarometerVisibility
4:00 AM
Fri, Jul 31
81 °FPassing clouds.8 mph74%29.71 "HgN/A
3:00 AM81 °FPassing clouds.8 mph74%29.71 "HgN/A
2:00 AM82 °FFog.3 mph84%29.71 "Hg3 mi
1:00 AM82 °FClear.10 mph84%29.65 "Hg4 mi
12:00 AM84 °FClear.10 mph79%29.65 "Hg4 mi
11:00 PM
Thu, Jul 30
86 °FClear.10 mph66%29.68 "Hg10 mi
10:00 PM86 °FClear.13 mph62%29.68 "Hg10 mi
9:00 PM86 °FClear.17 mph66%29.68 "Hg10 mi
8:00 PM84 °FClear.10 mph62%29.68 "Hg10 mi
7:00 PM81 °FPartly sunny.10 mph66%29.68 "HgN/A
6:00 PM86 °FScattered clouds.22 mph49%29.71 "HgN/A
5:00 PM91 °FSunny.15 mph56%29.62 "Hg10 mi
4:00 PM93 °FPassing clouds.17 mph56%29.62 "HgN/A
3:00 PM93 °FSunny.17 mph53%29.62 "Hg10 mi
2:00 PM95 °FSunny.15 mph53%29.62 "Hg10 mi
1:00 PM95 °FSunny.13 mph50%29.65 "Hg10 mi
12:00 PM95 °FPassing clouds.13 mph53%29.65 "HgN/A
11:00 AM93 °FPassing clouds.6 mph53%29.68 "HgN/A
10:00 AM91 °FPassing clouds.6 mph59%29.68 "HgN/A
9:00 AM90 °FPassing clouds.8 mph63%29.68 "HgN/A
8:00 AM88 °FPassing clouds.8 mph66%29.65 "HgN/A
7:00 AM88 °FPassing clouds.6 mph70%29.68 "HgN/A
6:00 AM84 °FSunny.6 mph74%29.65 "Hg10 mi
5:00 AM86 °FClear.6 mph70%29.62 "Hg10 mi
Weather by CustomWeather, © 2015

See weather overviewHow to use our weather pages